Date,TemperatureHighF,TemperatureAvgF,TemperatureLowF,DewpointHighF,DewpointAvgF,DewpointLowF,HumidityHigh,HumidityAvg,HumidityLow,PressureMaxIn,PressureMinIn,WindSpeedMaxMPH,WindSpeedAvgMPH,GustSpeedMaxMPH,PrecipitationSumIn
2013-1-1,44,41,38,40,38,36,93,90,86,30.11,29.56,3,0,20,0.00
2013-1-2,54,51,44,54,50,41,99,97,89,30.32,30.10,3,0,21,0.00
2013-1-3,56,53,50,56,52,49,99,96,91,30.57,30.33,2,0,13,0.00
2013-1-4,52,49,47,50,48,45,99,94,90,30.61,30.49,5,0,18,0.00
2013-1-5,53,50,46,53,49,46,99,99,99,30.50,30.41,12,1,23,0.01
2013-1-6,51,49,48,50,48,47,99,99,99,30.50,30.26,9,2,20,0.00
2013-1-7,51,50,48,51,50,48,99,99,99,30.26,30.07,13,3,24,0.07
2013-1-8,52,48,42,52,48,41,99,97,89,30.30,30.06,5,0,17,0.00
2013-1-9,48,42,40,44,41,38,99,94,87,30.29,30.10,5,0,11,0.00
2013-1-10,46,43,38,46,42,37,99,97,91,30.09,29.96,5,0,13,0.06
2013-1-11,47,44,38,47,43,38,99,98,96,30.08,29.83,7,1,13,0.02
2013-1-12,47,45,41,47,42,34,99,91,75,30.11,29.80,10,4,23,0.00
2013-1-13,41,39,37,39,35,31,99,86,69,30.20,30.11,3,0,12,0.04
2013-1-14,43,40,36,43,39,35,99,95,82,30.13,29.90,0,0,17,0.04
2013-1-15,43,38,34,41,36,33,99,96,87,29.96,29.78,9,1,15,0.00
2013-1-16,43,42,41,43,40,38,99,93,86,29.91,29.76,12,5,23,0.15
2013-1-17,46,44,42,45,44,42,99,99,99,29.91,29.58,21,9,35,0.14
2013-1-18,42,39,37,42,38,36,99,99,99,29.57,29.29,24,19,40,1.67
2013-1-19,40,38,36,40,37,32,99,96,81,29.62,29.34,14,7,24,0.15
2013-1-20,39,38,38,32,31,29,81,76,69,29.62,29.41,15,11,27,0.00
2013-1-21,39,37,33,38,35,31,99,94,76,29.41,29.35,13,1,21,0.21
2013-1-22,38,35,32,38,35,32,99,99,99,29.77,29.40,0,0,10,0.06
2013-1-23,40,39,38,39,36,33,99,90,83,29.88,29.76,10,3,21,0.01
2013-1-24,43,40,37,41,38,34,92,90,85,30.04,29.88,14,4,29,0.00
2013-1-25,47,44,43,46,44,41,99,98,93,29.96,29.39,15,9,37,0.60
2013-1-26,50,44,38,50,44,37,99,98,94,29.74,29.05,20,4,30,0.02
2013-1-27,53,43,39,52,40,35,99,88,74,29.45,29.02,8,3,30,0.14
2013-1-28,47,42,40,46,38,35,97,86,80,29.57,29.23,26,6,44,0.39
2013-1-29,58,51,48,56,47,42,99,86,80,29.39,29.17,6,2,28,0.04
2013-1-30,49,46,44,43,40,37,88,79,65,29.86,29.37,8,2,31,0.15
2013-1-31,49,45,42,44,39,38,86,79,69,29.77,29.56,21,3,40,0.83
2013-2-1,45,43,36,41,37,30,87,80,74,29.90,29.45,5,0,31,0.00
2013-2-2,45,39,34,36,32,30,86,78,62,30.32,29.92,1,0,15,0.00
2013-2-3,52,48,42,51,46,36,99,93,77,30.21,29.86,2,0,27,0.07
2013-2-4,50,46,36,49,36,21,97,72,32,29.94,29.02,6,1,28,0.04
2013-2-5,45,39,34,40,34,30,89,83,74,29.73,29.45,5,1,29,0.02
2013-2-6,45,40,36,35,32,28,81,72,57,30.30,29.75,3,0,20,0.00
2013-2-7,43,38,34,41,35,29,97,90,81,30.31,29.95,1,0,13,0.14
2013-2-8,46,42,39,44,40,38,97,92,88,30.32,30.21,0,0,13,0.00
2013-2-9,49,45,42,49,44,40,99,96,93,30.24,29.75,0,0,9,0.09
2013-2-10,46,44,41,45,43,41,99,98,94,29.73,29.23,7,1,15,0.71
2013-2-11,42,40,39,42,40,39,99,99,97,29.85,29.27,6,0,13,0.12
2013-2-12,42,40,39,42,40,39,99,99,98,30.04,29.86,10,2,23,0.05
2013-2-13,52,46,42,52,46,42,99,99,98,30.02,29.70,13,6,29,0.15
2013-2-14,50,46,42,49,42,38,99,89,72,30.07,29.72,1,0,16,0.01
2013-2-15,50,44,39,46,41,37,98,89,83,30.18,30.07,0,0,10,0.00
2013-2-16,50,46,43,50,45,40,99,97,87,30.14,30.08,9,2,24,0.00
2013-2-17,49,46,44,46,43,36,99,91,74,30.09,30.00,12,8,25,0.00
2013-2-18,48,45,43,39,38,35,83,77,70,30.12,30.01,12,5,25,0.00
2013-2-19,50,44,40,43,39,37,90,85,72,30.14,30.08,1,0,11,0.00
2013-2-20,47,43,38,43,39,36,99,86,75,30.18,30.09,15,6,25,0.01
2013-2-21,41,38,37,33,30,28,77,73,67,30.23,30.18,16,9,25,0.00
2013-2-22,38,37,35,28,26,24,68,65,60,30.29,30.20,7,1,17,0.00
2013-2-23,39,37,35,32,28,23,82,70,56,30.36,30.28,1,0,11,0.04
2013-2-24,44,38,35,33,30,27,84,72,58,30.49,30.36,2,0,12,0.02
2013-2-25,46,40,35,37,34,29,89,77,62,30.61,30.48,1,0,8,0.04
2013-2-26,44,42,40,38,37,35,88,82,76,30.69,30.57,1,0,11,0.00
2013-2-27,46,42,39,38,37,35,86,80,72,30.71,30.64,1,0,10,0.00
2013-2-28,46,42,37,44,39,34,98,88,83,30.65,30.53,1,0,12,0.00
2013-3-1,50,44,38,44,39,32,99,82,63,30.56,30.52,1,0,11,0.00
2013-3-2,48,42,37,38,34,32,86,74,62,30.52,30.33,0,0,6,0.00
2013-3-3,50,44,41,41,36,34,80,75,67,30.33,30.08,6,1,17,0.00
2013-3-4,46,42,37,36,34,32,85,75,66,30.08,29.76,7,2,17,0.00
2013-3-5,50,43,36,44,39,33,93,85,75,29.76,29.59,1,0,8,0.00
2013-3-6,48,46,45,46,44,40,99,93,84,29.59,29.50,6,1,14,0.10
2013-3-7,46,46,45,46,45,45,99,99,99,29.49,29.33,8,2,22,0.23
2013-3-8,47,46,45,47,46,45,99,99,99,29.54,29.31,17,6,26,0.10
2013-3-9,45,43,41,45,43,41,99,99,99,29.73,29.53,5,0,21,0.02
2013-3-10,41,39,35,41,32,16,99,78,44,29.97,29.74,12,6,31,0.01
2013-3-11,37,34,31,27,18,14,78,52,43,30.10,29.98,5,1,28,0.00
2013-3-12,43,37,33,29,22,13,75,54,42,30.12,30.01,2,0,16,0.00
2013-3-13,45,38,32,38,32,28,99,81,59,30.10,29.99,0,0,13,0.00
2013-3-14,48,40,32,40,34,26,93,79,68,30.11,29.78,0,0,13,0.01
2013-3-15,49,45,38,39,36,31,79,71,59,29.76,29.38,7,0,20,0.04
2013-3-16,46,40,35,38,34,31,96,79,64,29.38,29.30,1,0,9,0.01
2013-3-17,42,38,35,42,36,32,99,94,85,29.32,29.15,0,0,6,0.05
2013-3-18,46,40,37,41,37,32,99,89,67,29.47,29.20,6,0,15,0.06
2013-3-19,40,37,35,39,35,30,99,93,74,29.54,29.46,0,0,15,0.38
2013-3-20,45,39,36,44,38,36,99,96,89,29.92,29.55,12,1,20,0.08
2013-3-21,43,42,40,39,35,32,97,78,68,29.93,29.63,29,19,43,4.27
2013-3-22,42,41,38,42,41,38,99,99,98,29.73,29.53,30,19,44,2.80
2013-3-23,40,38,37,39,36,31,99,91,79,29.96,29.73,16,10,27,0.04
2013-3-24,37,36,35,31,27,24,79,69,60,30.09,29.96,18,12,33,0.07
2013-3-25,41,38,36,25,24,21,62,56,49,30.14,30.09,17,5,33,0.02
2013-3-26,40,37,34,28,25,21,70,62,54,30.14,30.06,8,1,24,0.00
2013-3-27,39,36,34,31,28,21,85,73,54,30.06,30.02,12,1,22,0.00
2013-3-28,41,37,34,28,25,21,78,63,49,30.04,29.95,14,3,24,0.00
2013-3-29,42,38,35,23,21,18,54,49,40,29.95,29.86,16,2,25,0.00
2013-3-30,46,40,36,24,20,17,53,45,33,29.99,29.89,6,1,21,0.00
2013-3-31,43,41,39,28,26,22,64,55,47,29.97,29.86,15,8,28,0.00
2013-4-1,41,39,37,27,24,22,61,55,49,29.98,29.86,17,9,27,0.04
2013-4-2,47,41,36,30,25,22,61,53,42,30.18,29.98,6,0,22,0.00
2013-4-3,48,42,37,31,28,25,67,57,43,30.26,30.18,1,0,17,0.00
2013-4-4,48,43,38,31,27,24,67,53,44,30.24,30.20,0,0,15,0.00
2013-4-5,47,43,39,34,28,23,72,56,41,30.31,30.20,1,0,18,0.00
2013-4-6,51,42,35,32,29,26,73,61,44,30.37,30.25,0,0,13,0.00
2013-4-7,47,42,38,37,33,29,82,70,58,30.26,29.85,9,1,22,0.00
2013-4-8,48,44,42,35,32,29,72,64,56,29.83,29.53,14,6,29,0.00
2013-4-9,50,42,38,36,33,31,77,70,56,29.64,29.50,12,2,29,0.00
2013-4-10,47,44,42,43,39,35,88,81,75,29.65,29.50,6,0,15,0.01
2013-4-11,47,44,42,46,42,38,99,90,77,29.50,29.30,9,1,17,0.35
2013-4-12,54,46,42,50,43,38,99,88,66,29.72,29.31,0,0,10,0.04
2013-4-13,48,45,42,47,42,38,99,90,81,29.73,29.45,16,4,28,0.05
2013-4-14,56,51,47,52,47,44,99,87,71,29.62,29.45,16,2,35,0.09
2013-4-15,61,52,48,45,43,38,89,72,45,29.85,29.57,13,3,30,0.04
2013-4-16,59,53,48,48,36,26,92,55,29,29.96,29.55,3,0,29,0.02
2013-4-17,56,50,47,54,44,33,99,81,57,29.93,29.28,18,4,41,2.28
2013-4-18,54,49,45,42,40,38,82,72,56,30.11,29.34,7,0,35,0.32
2013-4-19,57,48,40,42,38,34,83,71,53,30.51,30.13,0,0,13,0.00
2013-4-20,54,48,42,45,41,36,82,76,70,30.51,30.27,7,0,21,0.00
2013-4-21,57,50,46,43,39,35,77,65,47,30.26,29.99,1,0,20,0.00
2013-4-22,61,52,46,50,43,37,82,72,58,30.01,29.85,5,0,20,0.00
2013-4-23,65,55,48,47,44,41,82,68,47,30.17,29.98,0,0,13,0.00
2013-4-24,58,52,46,50,46,42,85,79,71,30.30,30.07,0,0,17,0.08
2013-4-25,58,49,45,49,42,34,96,78,50,30.27,30.14,0,0,15,0.16
2013-4-26,53,43,19,38,31,10,80,64,48,30.20,30.07,3,0,21,0.04
2013-4-27,56,48,41,38,36,32,76,63,50,30.23,30.11,1,0,15,0.00
2013-4-28,57,49,43,45,38,33,79,66,50,30.16,29.87,2,0,20,0.00
2013-4-29,60,49,41,39,35,27,79,60,35,30.27,29.93,1,0,17,0.00
2013-4-30,56,48,39,40,37,32,80,65,52,30.40,30.29,0,0,9,0.00
2013-5-1,60,51,44,47,41,35,79,68,55,30.34,30.29,0,0,8,0.00
2013-5-2,57,50,43,49,43,38,91,77,64,30.35,30.18,1,0,15,0.00
2013-5-3,59,55,51,46,44,42,77,66,56,30.17,29.90,0,0,14,0.01
2013-5-4,62,54,48,46,42,39,82,65,44,30.04,29.85,1,0,17,0.01
2013-5-5,64,58,52,50,47,43,77,68,58,30.13,30.04,1,0,11,0.00
2013-5-6,58,53,50,51,46,43,84,77,67,30.13,30.05,2,0,20,0.02
2013-5-7,63,54,48,50,45,42,87,72,53,30.08,29.75,1,0,8,0.00
2013-5-8,59,53,49,54,46,37,95,76,57,29.73,29.34,21,6,48,0.14
2013-5-9,56,50,47,47,42,37,83,74,63,29.57,29.24,22,7,36,1.35
2013-5-10,59,52,47,48,41,29,84,67,34,29.77,29.58,2,0,23,0.12
2013-5-11,54,50,46,45,39,35,82,68,51,29.99,29.71,2,0,30,0.06
2013-5-12,59,51,44,50,43,36,82,73,66,30.01,29.82,1,0,21,0.06
2013-5-13,53,48,44,40,36,34,73,64,52,29.88,29.76,1,0,29,0.05
2013-5-14,57,48,43,40,37,33,77,66,43,29.76,29.40,0,0,15,0.00
2013-5-15,54,47,43,40,38,35,79,69,50,29.57,29.44,1,0,21,0.01
2013-5-16,54,47,41,45,38,33,78,72,62,29.66,29.52,1,0,14,0.07
2013-5-17,58,50,44,45,40,36,83,70,49,29.95,29.66,1,0,16,0.00
2013-5-18,55,51,47,45,42,36,81,71,59,29.94,29.75,0,0,13,0.00
2013-5-19,65,56,49,50,45,40,82,70,48,30.08,29.82,0,0,2,0.00
2013-5-20,61,56,52,52,48,43,77,73,64,30.16,30.05,1,0,17,0.00
2013-5-21,65,55,48,45,44,41,77,65,47,30.23,30.15,1,0,21,0.00
2013-5-22,58,53,49,46,38,32,82,59,38,30.29,30.22,1,0,20,0.00
2013-5-23,53,47,42,38,34,30,74,62,45,30.23,30.11,1,0,28,0.01
2013-5-24,59,50,43,38,36,33,71,58,42,30.25,30.06,2,0,23,0.00
2013-5-25,59,53,45,45,42,36,77,66,56,30.27,30.21,1,0,12,0.00
2013-5-26,60,55,51,49,46,43,81,73,64,30.21,29.85,7,0,20,0.00
2013-5-27,58,52,49,51,46,43,88,81,70,29.84,29.49,12,1,27,0.16
2013-5-28,61,52,45,48,44,39,81,74,60,29.70,29.54,0,0,8,0.06
2013-5-29,70,58,49,50,46,41,84,66,46,30.02,29.69,1,0,18,0.14
2013-5-30,72,60,51,46,42,40,70,52,33,30.18,30.02,1,0,21,0.00
2013-5-31,63,56,49,51,44,35,77,65,50,30.33,30.18,0,0,10,0.00
2013-6-1,62,56,47,45,41,35,70,59,50,30.44,30.33,0,0,12,0.00
2013-6-2,62,56,51,48,44,37,73,63,56,30.52,30.43,0,0,7,0.00
2013-6-3,69,61,53,53,48,42,78,64,44,30.55,30.51,0,0,6,0.00
2013-6-4,70,60,52,51,45,38,78,58,34,30.51,30.32,0,0,8,0.00
2013-6-5,67,60,52,51,46,44,78,61,45,30.31,30.18,0,0,12,0.00
2013-6-6,67,59,51,51,48,45,80,67,51,30.29,30.19,1,0,13,0.00
2013-6-7,69,61,54,51,47,42,77,60,42,30.34,30.30,1,0,11,0.00
2013-6-8,66,60,54,51,47,40,76,61,49,30.32,30.15,1,0,11,0.00
2013-6-9,68,60,52,50,46,39,73,60,47,30.16,30.00,0,0,2,0.00
2013-6-10,63,57,52,50,46,40,79,67,59,30.00,29.87,7,1,21,0.00
2013-6-11,58,55,52,57,52,48,96,90,80,29.87,29.69,15,4,25,0.10
2013-6-12,64,57,54,58,51,46,99,81,64,29.75,29.59,0,0,11,0.00
2013-6-13,65,57,50,53,46,40,83,67,47,29.95,29.58,0,0,23,0.01
2013-6-14,59,55,50,52,47,43,80,74,70,29.95,29.45,21,3,41,1.12
2013-6-15,66,57,49,48,44,39,78,62,37,29.77,29.53,0,0,17,0.00
2013-6-16,62,56,53,51,47,45,77,72,65,30.00,29.77,3,0,17,0.06
2013-6-17,61,56,52,55,48,44,80,74,71,30.08,30.00,0,0,9,0.07
2013-6-18,71,62,52,54,49,45,78,63,47,30.06,30.00,0,0,6,0.00
2013-6-19,68,60,54,48,46,43,74,59,40,30.12,30.03,0,0,9,0.00
2013-6-20,70,61,55,50,47,44,73,60,46,30.08,29.84,0,0,11,0.00
2013-6-21,68,61,55,52,50,46,77,68,44,29.90,29.64,5,0,20,0.01
2013-6-22,64,59,54,50,48,46,79,68,54,29.64,29.47,3,0,21,0.02
2013-6-23,59,56,53,48,46,40,74,68,56,30.18,29.62,3,0,30,0.04
2013-6-24,64,56,50,46,43,38,76,61,39,30.34,30.18,1,0,12,0.00
2013-6-25,64,60,52,52,48,42,72,67,57,30.48,30.34,0,0,6,0.00
2013-6-26,68,61,54,51,46,42,74,59,44,30.56,30.48,0,0,17,0.00
2013-6-27,65,58,53,58,50,44,80,74,64,30.53,30.30,0,0,13,0.04
2013-6-28,66,62,56,56,53,46,79,74,67,30.30,30.15,0,0,17,0.00
2013-6-29,75,61,53,58,50,44,74,67,52,30.29,30.24,0,0,15,0.00
2013-6-30,67,61,56,53,47,40,68,60,45,30.28,30.04,0,0,18,0.00
2013-7-1,66,59,53,48,43,40,71,58,41,30.07,29.97,0,0,9,0.00
2013-7-2,60,58,55,53,49,42,80,74,57,29.97,29.52,10,1,28,0.10
2013-7-3,68,61,55,53,51,48,79,69,55,29.91,29.57,0,0,10,0.00
2013-7-4,70,64,57,55,47,41,78,56,40,30.31,29.88,0,0,17,0.00
2013-7-5,68,61,54,50,47,42,74,61,46,30.45,30.31,1,0,13,0.00
2013-7-6,69,60,42,53,49,42,99,69,57,30.50,29.31,5,0,15,0.00
2013-7-7,75,68,62,58,56,52,77,66,53,30.64,30.52,0,0,11,0.00
2013-7-8,78,67,61,56,53,51,72,61,42,30.64,30.56,0,0,8,0.00
2013-7-9,83,73,60,58,53,46,76,52,29,30.55,30.42,0,0,3,0.00
2013-7-10,72,66,62,57,55,54,75,67,56,30.42,30.37,0,0,13,0.00
2013-7-11,75,67,60,58,53,50,77,61,43,30.39,30.34,0,0,6,0.00
2013-7-12,77,68,58,58,51,45,77,56,32,30.35,30.31,0,0,2,0.00
2013-7-13,76,69,59,58,54,50,73,60,49,30.40,30.31,0,0,8,0.00
2013-7-14,71,63,57,54,51,49,75,67,53,30.40,30.29,0,0,6,0.00
2013-7-15,69,64,58,55,52,49,76,66,50,30.33,30.29,1,0,15,0.00
2013-7-16,72,66,59,54,52,50,73,62,48,30.32,30.29,0,0,8,0.00
2013-7-17,77,69,65,55,52,45,62,54,41,30.40,30.31,0,0,2,0.00
2013-7-18,80,72,65,58,50,46,73,47,31,30.43,30.39,0,0,7,0.00
2013-7-19,80,71,64,60,57,54,80,64,41,30.41,30.31,0,0,11,0.00
2013-7-20,77,70,63,59,56,54,73,63,51,30.32,30.24,0,0,8,0.00
2013-7-21,63,63,61,54,54,53,73,72,72,30.23,30.19,0,0,2,0.00
2013-12-12,53,52,51,53,52,50,99,99,99,29.72,29.69,12,9,20,0.00
2013-12-13,54,51,44,53,46,37,99,83,64,30.02,29.54,15,8,35,0.04
2013-12-14,56,51,45,50,45,37,89,80,69,30.03,29.55,26,11,43,0.58
2013-12-15,54,49,44,49,43,36,95,80,68,29.94,29.58,26,10,40,1.34
2013-12-16,51,44,41,44,38,34,90,78,69,30.04,29.59,10,5,29,0.11
2013-12-17,48,44,41,41,36,34,78,74,68,30.12,29.69,26,10,38,0.22
2013-12-18,51,48,41,50,44,34,98,88,69,29.69,28.78,26,14,46,2.16
2013-12-19,41,39,37,35,33,30,84,78,70,29.67,29.10,15,9,35,0.08
2013-12-20,54,47,38,47,40,33,85,77,71,29.85,29.48,21,10,46,0.32
2013-12-21,50,46,41,43,39,34,91,76,66,29.61,29.33,20,9,37,0.17
2013-12-22,43,40,36,35,33,31,86,77,69,29.66,29.42,18,9,38,0.06
2013-12-23,52,47,39,48,41,33,95,81,71,29.62,28.38,23,10,37,0.48
2013-12-24,45,41,39,36,31,26,84,67,54,28.71,28.42,20,10,48,0.51
2013-12-25,46,40,36,34,32,29,80,73,62,29.12,28.70,6,2,15,0.00
2013-12-26,48,42,37,47,36,32,96,82,72,29.33,28.49,29,8,49,5.98
2013-12-27,48,44,39,40,37,35,86,77,66,29.03,28.34,23,14,55,1.11
2013-12-28,44,40,38,36,34,33,85,82,74,29.65,29.03,15,4,23,0.00
2013-12-29,48,42,37,46,37,30,93,83,72,29.85,29.44,21,8,29,0.01
2013-12-30,49,44,41,47,41,38,94,89,81,29.61,29.22,17,7,34,0.10
2013-12-31,48,44,42,44,39,34,91,81,69,29.43,29.13,21,9,38,0.17
2014-1-1,50,44,42,47,40,36,95,87,74,29.24,28.59,24,9,37,0.62
2014-1-2,49,45,42,46,39,36,93,80,67,29.15,28.82,20,7,36,0.07